Andrews, TX

11:54 AM CST on February 21, 2018 (GMT -0600)
Andrews

Weather History for KE11 - November, 2012

Change the Weather History Date:

Tuesday, November 6, 2012

  Actual Average (KMAF) Record (KMAF)
Temperature  
Mean Temperature 61 °F -  
Max Temperature 77 °F 65 °F 90 °F (2017)
Min Temperature 45 °F 42 °F 21 °F (1959)
Degree Days  
Heating Degree Days 4    
Growing Degree Days 11 (Base 50)    
Moisture  
Dew Point 36 °F    
Average Humidity 42    
Maximum Humidity 67    
Minimum Humidity 20    
Precipitation  
Precipitation 0.00 in - - ()
Sea Level Pressure  
Sea Level Pressure 30.18 in    
Wind  
Wind Speed 5 mph ()    
Max Wind Speed 12 mph    
Max Gust Speed -    
Visibility 10.0 miles    
Events      
Averages and records for this station are not official NWS values.
T = Trace of Precipitation, MM = Missing Value Source: Averaged Metar Reports

Daily Weather History Graph

Daily Weather History Graph

Search for Another Location

Airport or City:

Trip Planner

Search our weather history database for the weather conditions in past years. The results will help you decide how hot, cold, wet, or windy it might be!

Date:

Astronomy

Nov. 06, 2012 Rise Set
Actual Time 7:11 AM CST 5:55 PM CST
Civil Twilight 6:46 AM CST 6:20 PM CST
Nautical Twilight 6:17 AM CST 6:50 PM CST
Astronomical Twilight 5:48 AM CST 7:18 PM CST
Moon No Moon Rise 1:08 PM CST (11/6)
Length of Visible Light 11h 34m
Length of Day
10h 43m
Waning Gibbous, 53% of the Moon is Illuminated
Nov 6
Waning Gibbous
Nov 6
Last Quarter
Nov 13
New
Nov 20
First Quarter
Nov 28
Full

Hourly Weather History & Observations

Time (CST) Temp. Windchill Dew Point Humidity Pressure Visibility Wind Dir Wind Speed Gust Speed Precip Events Conditions
12:15 AM 51.8 °F - 34.3 °F 51% 30.18 in 10.0 mi SSW 3.5 mph - N/A   Clear
12:35 AM 52.0 °F - 34.3 °F 51% 30.19 in 10.0 mi SSW 5.8 mph - N/A   Clear
12:55 AM 52.7 °F - 34.3 °F 50% 30.19 in 10.0 mi SSW 5.8 mph - N/A   Clear
1:15 AM 52.2 °F - 34.5 °F 51% 30.18 in 10.0 mi SSW 6.9 mph - N/A   Clear
1:35 AM 52.5 °F - 34.3 °F 50% 30.18 in 10.0 mi SSW 8.1 mph - N/A   Clear
1:55 AM 52.7 °F - 34.3 °F 50% 30.17 in 10.0 mi SSW 6.9 mph - N/A   Clear
2:15 AM 52.2 °F - 34.0 °F 50% 30.17 in 10.0 mi SW 6.9 mph - N/A   Clear
2:35 AM 51.8 °F - 34.3 °F 51% 30.17 in 10.0 mi SSW 6.9 mph - N/A   Clear
2:55 AM 51.4 °F - 34.3 °F 52% 30.17 in 10.0 mi SSW 8.1 mph - N/A   Clear
3:15 AM 50.4 °F - 34.0 °F 53% 30.17 in 10.0 mi SSW 6.9 mph - N/A   Clear
3:35 AM 50.4 °F - 33.8 °F 53% 30.17 in 10.0 mi SSW 6.9 mph - N/A   Clear
3:55 AM 50.0 °F - 33.8 °F 54% 30.16 in 10.0 mi SW 6.9 mph - N/A   Clear
4:15 AM 50.2 °F - 33.4 °F 53% 30.16 in 10.0 mi SW 8.1 mph - N/A   Clear
4:35 AM 50.4 °F - 33.6 °F 53% 30.17 in 10.0 mi WSW 8.1 mph - N/A   Clear
4:55 AM 50.2 °F - 33.8 °F 53% 30.17 in 10.0 mi WSW 6.9 mph - N/A   Clear
5:15 AM 49.5 °F - 34.0 °F 55% 30.18 in 10.0 mi West 3.5 mph - N/A   Clear
5:35 AM 47.3 °F - 34.3 °F 61% 30.17 in 10.0 mi West 5.8 mph - N/A   Clear
5:55 AM 47.5 °F - 34.7 °F 61% 30.18 in 10.0 mi West 3.5 mph - N/A   Clear
6:15 AM 45.7 °F 42.7 °F 34.3 °F 65% 30.18 in 10.0 mi West 5.8 mph - N/A   Clear
6:35 AM 45.5 °F 43.2 °F 34.7 °F 66% 30.18 in 10.0 mi West 4.6 mph - N/A   Clear
6:55 AM 45.1 °F 42.8 °F 34.7 °F 67% 30.18 in 10.0 mi WNW 4.6 mph - N/A   Clear
7:15 AM 45.5 °F 43.2 °F 34.7 °F 66% 30.18 in 10.0 mi West 4.6 mph - N/A   Clear
7:35 AM 46.6 °F - 34.9 °F 64% 30.18 in 10.0 mi West 4.6 mph - N/A   Clear
7:55 AM 49.3 °F - 34.9 °F 58% 30.18 in 10.0 mi WSW 4.6 mph - N/A   Clear
8:15 AM 52.9 °F - 35.6 °F 52% 30.19 in 10.0 mi SW 6.9 mph - N/A   Clear
8:35 AM 55.6 °F - 35.4 °F 47% 30.21 in 10.0 mi SW 5.8 mph - N/A   Clear
9:15 AM 61.0 °F - 36.7 °F 40% 30.21 in 10.0 mi South 6.9 mph - N/A   Clear
9:35 AM 63.1 °F - 37.4 °F 39% 30.21 in 10.0 mi SSW 8.1 mph - N/A   Clear
9:55 AM 65.5 °F - 38.5 °F 37% 30.21 in 10.0 mi SW 10.4 mph - N/A   Clear
10:15 AM 66.9 °F - 39.2 °F 36% 30.21 in 10.0 mi SSW 11.5 mph - N/A   Clear
10:35 AM 68.5 °F - 39.6 °F 35% 30.22 in 10.0 mi SW 5.8 mph - N/A   Clear
10:55 AM 69.8 °F - 39.9 °F 34% 30.23 in 10.0 mi South 5.8 mph - N/A   Clear
11:15 AM 71.1 °F - 39.7 °F 32% 30.22 in 10.0 mi SSW 6.9 mph - N/A   Clear
11:35 AM 72.5 °F - 39.7 °F 31% 30.21 in 10.0 mi SSW 9.2 mph - N/A   Clear
11:55 AM 73.6 °F - 39.4 °F 29% 30.20 in 10.0 mi WSW 8.1 mph - N/A   Clear
12:15 PM 73.8 °F - 37.8 °F 27% 30.20 in 10.0 mi WSW 5.8 mph - N/A   Clear
12:35 PM 74.3 °F - 36.7 °F 25% 30.19 in 10.0 mi SW 4.6 mph - N/A   Clear
12:55 PM 74.7 °F - 36.5 °F 25% 30.18 in 10.0 mi SSW 3.5 mph - N/A   Clear
1:15 PM 75.6 °F - 36.9 °F 25% 30.18 in 10.0 mi SSW 5.8 mph - N/A   Clear
1:35 PM 76.1 °F - 37.0 °F 24% 30.17 in 10.0 mi SSW 5.8 mph - N/A   Clear
1:55 PM 76.8 °F - 36.0 °F 23% 30.16 in 10.0 mi SSW 4.6 mph - N/A   Clear
2:15 PM 77.2 °F - 36.1 °F 23% 30.15 in 10.0 mi SW 6.9 mph - N/A   Clear
2:35 PM 77.2 °F - 35.1 °F 22% 30.15 in 10.0 mi SE 8.1 mph - N/A   Clear
2:55 PM 77.4 °F - 34.9 °F 21% 30.15 in 10.0 mi SSW 6.9 mph - N/A   Clear
3:15 PM 77.9 °F - 34.3 °F 21% 30.14 in 10.0 mi SSW 8.1 mph - N/A   Clear
3:35 PM 77.5 °F - 33.6 °F 20% 30.14 in 10.0 mi South 8.1 mph - N/A   Clear
3:55 PM 77.5 °F - 33.1 °F 20% 30.14 in 10.0 mi South 10.4 mph - N/A   Clear
4:35 PM 76.8 °F - 33.6 °F 21% 30.14 in 10.0 mi South 6.9 mph - N/A   Clear
4:55 PM 76.1 °F - 33.4 °F 21% 30.14 in 10.0 mi SE 5.8 mph - N/A   Clear
5:35 PM 72.9 °F - 34.5 °F 25% 30.14 in 10.0 mi SSE 4.6 mph - N/A   Clear
5:55 PM 69.4 °F - 35.2 °F 28% 30.14 in 10.0 mi SE 4.6 mph - N/A   Clear
6:15 PM 67.3 °F - 35.4 °F 31% 30.14 in 10.0 mi SSE 4.6 mph - N/A   Clear
6:35 PM 64.2 °F - 35.4 °F 34% 30.15 in 10.0 mi SE 3.5 mph - N/A   Clear
6:55 PM 62.4 °F - 35.6 °F 37% 30.15 in 10.0 mi SSE 3.5 mph - N/A   Clear
7:15 PM 61.7 °F - 35.6 °F 38% 30.16 in 10.0 mi SSE 3.5 mph - N/A   Clear
7:35 PM 59.2 °F - 35.6 °F 41% 30.17 in 10.0 mi Calm Calm - N/A   Clear
7:55 PM 59.9 °F - 35.8 °F 41% 30.17 in 10.0 mi Calm Calm - N/A   Clear
8:15 PM 59.5 °F - 37.2 °F 43% 30.17 in 10.0 mi Calm Calm - N/A   Clear
8:35 PM 56.5 °F - 36.7 °F 48% 30.17 in 10.0 mi ESE 3.5 mph - N/A   Clear
8:55 PM 56.3 °F - 35.6 °F 46% 30.18 in 10.0 mi ESE 4.6 mph - N/A   Clear
9:15 PM 56.7 °F - 35.6 °F 45% 30.18 in 10.0 mi ESE 5.8 mph - N/A   Clear
9:35 PM 56.5 °F - 36.0 °F 46% 30.18 in 10.0 mi SE 5.8 mph - N/A   Clear
9:55 PM 57.2 °F - 36.5 °F 46% 30.18 in 10.0 mi SE 4.6 mph - N/A   Clear
10:15 PM 56.7 °F - 36.9 °F 48% 30.19 in 10.0 mi SSE 4.6 mph - N/A   Clear
10:35 PM 55.9 °F - 36.7 °F 48% 30.19 in 10.0 mi SSE 4.6 mph - N/A   Clear
10:55 PM 54.7 °F - 36.5 °F 50% 30.19 in 10.0 mi Calm Calm - N/A   Clear
11:15 PM 54.5 °F - 36.5 °F 51% 30.20 in 10.0 mi SE 4.6 mph - N/A   Clear
11:35 PM 54.0 °F - 36.5 °F 52% 30.20 in 10.0 mi SSE 3.5 mph - N/A   Clear
11:55 PM 53.6 °F - 36.7 °F 53% 30.20 in 10.0 mi SE 3.5 mph - N/A   Clear